SCP
0 0 0 0 0 0 0 0 0 0 0 0 0 0 0 0 0 0 0 0 0 0 0 0 0 0 0 0 0 0 0 0 0 0 0 0 0 0 0 0 0 0 0 0 0 0 0 0 0
0 0 0 0 -0 0 0 0 0 0 0 0 0 0 0 0 0 0 0 0 0 0 0 0 0 0 0 0 0 0 0 0 0 0 0 0 0 0 0 0 0 0 0 0 0 0 0 0 0
0 0 0 -0 -0 -0 0 0 0 0 0 0 0 0 0 0 0 0 0 0 0 0 0 0 0 0 0 0 0 0 0 0 0 0 0 0 0 0 0 0 0 0 0 0 0 0 0 0 0
0 0 -0 -0 -0 -0 -0 0 -0 -0 -0 0 0 0 0 0 0 0 0 0 0 0 0 0 0 0 1 1 1 1 0 0 0 0 0 0 0 0 0 0 0 0 0 0 0 0 0 0 0
0 0 -0 0 0 0 -0 -0 -0 0 0 0 -0 0 0 0 0 0 0 0 0 0 0 0 0 0 0 0 1 1 1 1 1 1 0 0 0 0 0 0 0 0 0 0 0 0 0 0 0
0 0 0 0 0 -0 -0 -0 -0 -0 0 0 0 0 0 0 0 0 0 0 0 0 0 0 0 0 0 0 0 0 1 1 1 1 1 1 1 0 0 0 0 0 0 0 0 0 0 0 0
-0 0 0 0 -0 0 -0 -0 -0 0 0 0 0 0 0 0 0 0 0 0 0 0 0 0 0 0 0 0 0 0 0 0 0 0 0 0 1 1 1 0 0 0 0 0 0 0 0 0 0
-0 0 -0 0 0 0 0 0 0 0 0 0 0 0 0 0 0 0 0 0 0 0 0 0 0 0 0 0 0 0 0 0 0 0 0 0 0 0 0 0 0 0 0 0 0 0 0 0 0
0 0 0 -0 0 0 0 0 0 0 0 0 0 0 0 0 0 0 0 0 0 0 0 0 0 0 0 0 0 0 0 0 0 0 0 0 0 0 0 0 0 0 0 0 0 0 0 0 0
0 0 0 0 0 0 0 0 0 0 0 0 0 0 0 0 0 0 0 0 0 0 0 0 0 0 0 0 0 0 0 0 0 0 0 0 0 0 0 0 0 0 0 0 0 0 0 0 0
0 0 0 0 0 0 0 0 0 0 0 0 0 0 0 0 0 0 0 0 0 0 0 0 0 0 0 0 0 0 0 0 0 0 0 0 0 0 0 0 0 1 0 1 0 0 0 0 0
0 0 0 0 0 0 0 0 0 0 0 0 0 0 0 0 0 0 0 0 0 0 0 0 0 0 0 0 0 0 0 0 0 0 0 0 0 0 0 0 0 0 0 0 1 1 1 0 0
0 0 0 0 0 0 0 0 0 0 0 0 0 0 0 0 0 0 0 0 0 0 0 0 0 0 0 0 0 0 0 0 0 0 0 0 0 0 0 0 0 0 0 0 1 0 0 0 0
0 0 0 0 0 0 0 0 0 0 0 0 0 0 0 0 0 0 0 0 0 0 0 0 0 0 0 0 0 0 0 0 0 0 0 0 0 0 0 0 0 0 0 0 0 0 0 0 0
0 0 0 0 0 0 0 0 0 0 0 0 0 0 0 0 0 0 0 0 0 0 0 0 0 0 0 0 0 0 0 0 0 0 0 0 0 0 0 0 0 0 0 0 0 0 0 0 0
0 0 0 0 0 0 0 0 0 0 0 0 0 0 0 0 0 0 0 0 0 0 0 0 0 0 0 0 0 0 0 0 0 0 0 0 0 0 0 0 0 0 0 0 0 0 0 0 0
0 0 0 0 0 0 0 0 0 0 0 0 0 0 0 0 0 0 0 0 0 0 0 0 0 0 0 0 0 0 0 0 0 0 0 0 0 0 0 0 0 0 0 0 0 0 0 0 0
0 0 0 0 0 0 0 0 0 0 0 0 0 0 0 0 0 0 0 0 0 0 0 0 0 0 0 0 0 0 0 0 0 0 0 0 0 0 0 0 0 0 0 0 0 0 0 0 0
0 0 0 0 0 0 0 0 0 0 0 0 0 0 0 0 0 0 0 0 0 0 0 0 0 0 0 0 0 0 0 0 0 0 0 0 0 0 0 0 0 0 0 0 0 0 0 0 0
0 0 0 0 0 0 0 0 0 0 0 0 0 0 0 0 0 0 0 0 0 0 0 0 0 0 0 0 0 -0 -0 0 0 0 0 0 0 0 0 0 0 0 0 0 0 0 0 0 0
0 0 0 0 0 0 0 0 0 0 0 0 0 0 0 0 0 0 0 0 0 0 0 0 0 0 0 0 0 0 -0 -0 -0 0 0 0 0 0 0 0 0 0 0 0 0 0 0 0 0
0 0 0 0 0 0 0 0 0 0 0 0 0 0 0 0 0 0 0 0 0 0 0 0 0 0 0 0 0 0 0 0 0 0 -0 0 0 0 0 0 0 0 0 0 0 0 0 0 0
0 0 0 0 0 0 0 0 0 0 0 0 0 0 0 0 0 0 0 0 0 0 0 0 0 0 0 0 0 0 0 -0 -0 -0 0 0 0 0 0 0 0 0 0 0 0 0 0 0 0
0 0 0 0 0 0 0 0 0 0 0 0 0 0 0 0 0 0 0 0 0 0 0 0 0 0 0 0 0 0 0 0 0 0 -0 0 0 0 0 0 0 0 0 0 0 0 0 0 0
0 0 0 0 0 0 0 0 0 0 0 0 0 0 0 0 0 0 0 0 0 0 0 0 0 0 0 0 0 0 0 0 0 0 0 0 0 0 0 0 0 0 0 0 0 0 0 0 0
0 0 0 0 0 0 0 0 0 0 0 0 0 0 0 0 0 0 0 0 0 0 0 0 0 0 0 0 0 0 0 0 0 0 0 0 0 0 0 0 0 0 0 0 0 0 0 0 0
0 0 0 0 0 0 0 0 0 0 0 0 0 0 0 0 0 0 0 0 0 0 0 0 0 0 0 0 0 0 0 0 0 0 0 0 0 0 0 0 0 0 0 0 0 0 0 0 0
0 0 0 0 0 0 0 0 0 0 0 0 0 0 0 0 0 0 0 0 0 0 0 0 0 0 0 0 0 0 0 0 0 0 0 0 0 0 0 0 0 0 0 0 0 0 0 0 0
0 0 0 0 0 0 0 0 0 0 0 0 0 0 0 0 0 0 0 0 0 0 0 0 0 0 0 0 0 0 0 0 0 0 0 0 0 0 0 0 0 0 0 0 0 0 0 0 0
0 0 0 0 0 0 0 0 0 0 0 0 0 0 0 0 0 0 0 0 0 0 0 0 0 0 0 0 0 0 0 0 0 0 0 0 0 0 0 0 0 0 0 0 0 0 0 0 0
Wind_Speed_500mb
15 17 13 4 5 5 7 6 2 6 6 9 9 6 10 13 10 7 9 9 14 12 12 7 9 9 8 7 9 10 11 13 13 13 12 13 12 10 8 5 4 3 2 9 11 8 10 13 15
17 13 6 2 3 6 8 6 8 6 6 6 5 5 5 7 8 5 6 14 6 8 11 11 12 12 11 10 10 12 11 13 16 15 16 16 15 14 12 10 8 7 5 6 9 14 9 12 14
14 7 2 2 3 2 8 9 11 10 3 1 1 6 3 4 6 5 18 18 12 11 8 7 16 16 16 14 12 12 13 14 16 17 18 17 18 18 16 14 13 11 8 9 12 14 16 15 17
6 5 6 3 12 9 10 11 6 9 6 4 4 5 6 3 3 7 15 15 14 14 12 14 17 17 18 19 17 16 15 16 17 18 19 20 21 20 18 18 16 14 14 13 15 20 20 17 16
6 3 4 7 8 8 7 6 3 4 4 2 3 2 5 4 5 9 13 17 17 16 13 12 18 20 20 21 23 22 21 20 20 20 22 24 25 25 24 21 19 18 18 18 17 20 20 20 20
3 1 5 8 8 7 5 6 2 2 3 4 1 3 5 8 3 3 11 17 21 20 17 15 14 19 25 26 27 25 23 23 22 23 26 27 29 30 27 25 24 22 21 21 16 18 20 22 23
5 2 5 8 12 8 5 3 1 1 1 3 3 4 3 9 6 1 9 16 21 23 19 16 16 15 14 18 24 28 30 28 28 29 28 30 31 32 31 29 28 27 25 23 19 20 22 22 25
7 5 9 4 10 7 5 4 3 4 1 1 1 2 4 10 10 1 8 16 19 19 17 15 16 18 18 16 12 16 26 29 28 34 46 40 34 34 34 32 31 30 27 26 25 26 28 29 29
8 4 8 10 11 10 5 6 2 3 5 4 5 3 6 14 13 3 6 12 16 15 15 18 18 19 18 17 16 15 14 14 20 26 35 37 38 36 34 35 34 33 30 29 30 30 35 38 31
7 3 6 5 6 8 6 3 1 6 9 11 10 10 9 18 15 7 2 5 9 11 14 16 18 22 22 21 20 19 18 17 17 17 21 26 32 34 34 36 42 37 31 32 32 33 38 42 47
8 7 11 7 4 3 3 3 4 7 9 5 6 10 17 19 14 8 2 3 6 10 11 15 18 20 19 21 22 21 20 19 18 18 20 21 22 22 27 31 31 39 35 32 34 39 44 46 42
10 10 6 8 3 1 2 5 6 8 8 8 11 8 17 17 12 8 5 2 5 10 15 17 18 18 18 19 19 21 20 20 19 21 21 19 19 19 20 19 25 35 37 35 34 43 47 46 51
16 9 8 7 4 3 5 7 8 9 18 9 7 12 15 16 14 13 8 2 4 7 10 16 22 23 22 21 20 20 22 24 25 24 24 24 24 22 20 20 22 22 32 37 43 47 49 59 57
9 13 10 5 4 4 8 5 7 11 22 7 3 9 8 12 14 13 9 4 2 6 12 18 20 23 24 24 23 22 22 24 26 27 27 28 28 28 26 24 23 21 22 25 23 32 47 53 51
8 7 8 10 11 2 6 6 11 21 20 8 5 6 8 11 13 12 12 8 2 6 12 16 22 25 25 26 26 25 24 25 26 26 27 28 30 31 30 28 25 22 19 14 17 34 31 18 21
3 2 2 7 14 3 11 6 9 25 26 14 5 7 12 16 16 13 11 7 1 5 11 19 23 25 26 26 26 26 26 27 28 30 30 30 30 32 33 32 28 24 20 19 23 34 46 35 28
9 2 7 3 10 10 10 8 9 29 22 13 4 7 15 18 16 14 11 7 6 12 16 19 23 25 25 25 25 26 27 27 29 31 33 35 33 31 31 33 33 30 26 23 32 39 45 40 32
6 5 6 10 12 14 16 7 21 25 19 13 8 13 16 16 17 14 12 9 13 17 21 24 26 27 29 26 24 24 27 29 30 32 33 34 36 36 34 33 33 34 32 30 28 30 34 38 36
5 6 10 10 6 21 6 13 11 18 20 16 17 18 18 18 14 12 9 9 11 16 21 28 30 36 38 40 40 39 39 37 35 34 34 35 36 37 37 35 34 32 34 35 32 33 38 40 46
4 7 8 10 5 17 9 16 6 18 18 17 16 18 18 16 12 10 10 13 18 20 23 27 33 37 39 42 44 44 45 42 39 41 40 39 38 37 38 38 38 35 33 35 37 33 38 38 43
1 9 15 13 22 4 22 8 4 10 14 16 17 18 16 13 10 7 9 16 18 20 26 32 29 27 34 42 53 54 52 51 51 52 49 47 45 43 41 38 38 39 34 35 35 37 30 40 38
1 5 11 18 11 6 8 6 5 5 6 9 11 13 14 12 11 8 10 11 13 21 22 21 31 41 41 40 40 46 52 58 59 62 61 56 52 51 46 42 39 38 39 35 37 35 36 33 44
5 12 8 4 4 8 2 7 9 6 5 9 12 12 11 9 7 6 9 10 11 21 34 33 36 40 45 48 52 55 59 63 67 67 67 66 63 60 53 46 42 40 39 39 37 40 38 37 38
12 4 3 2 2 5 5 9 5 4 2 5 16 16 12 8 2 5 6 10 26 40 36 35 37 40 49 56 59 61 64 66 70 72 73 70 66 62 55 50 45 42 39 40 39 36 44 43 42
9 9 4 2 3 5 5 10 11 3 3 11 15 20 13 7 2 6 16 33 27 28 33 40 48 51 57 64 65 65 66 68 66 67 66 68 66 60 56 53 49 45 43 41 42 42 39 46 51
9 9 2 9 8 17 4 11 3 3 4 4 13 17 11 5 3 13 21 21 23 32 42 52 57 60 60 63 66 65 64 61 61 60 62 62 60 57 56 55 53 50 47 45 42 44 42 41 50
4 2 6 7 2 5 6 7 8 5 5 7 13 13 7 3 6 12 18 24 32 40 46 52 58 61 60 62 63 63 58 58 58 57 57 57 55 52 54 54 55 52 50 47 44 44 46 41 41
3 8 4 2 10 13 10 14 10 9 6 12 16 14 7 6 9 14 21 32 39 46 53 56 57 58 61 59 58 60 60 56 55 54 54 54 56 55 53 52 50 50 48 46 44 46 46 46 41
3 4 2 5 5 8 12 8 7 3 6 11 14 9 4 10 13 18 28 36 44 49 52 53 55 58 58 57 60 59 57 55 53 52 50 50 53 54 54 53 51 47 45 42 43 45 46 48 44
3 3 4 6 5 8 7 18 7 7 6 4 8 7 7 13 16 22 30 37 43 50 52 54 56 56 57 59 59 58 55 53 50 50 50 49 50 50 52 52 53 50 45 43 44 43 48 49 51
Wind_Direction_500mb
122 127 126 79 200 89 93 102 205 147 127 61 56 16 43 34 2 16 333 328 341 328 315 307 295 279 280 268 252 256 253 241 238 237 227 222 227 232 242 262 291 316 240 204 199 226 205 203 220
132 134 102 160 236 187 135 154 152 64 70 87 52 357 32 63 32 30 31 316 325 315 308 288 273 290 273 268 260 265 263 243 237 234 230 233 237 240 243 249 264 278 279 235 207 199 219 204 195
135 134 243 99 132 126 112 134 93 66 110 267 104 53 47 64 36 28 352 344 332 331 306 277 271 270 264 255 267 266 260 249 242 244 241 238 242 242 240 243 249 253 257 250 225 214 204 222 214
97 42 57 330 94 75 89 128 149 165 117 174 163 147 101 129 100 29 16 15 352 328 314 262 248 260 273 261 250 254 252 249 250 249 248 243 241 242 249 252 253 254 257 262 242 231 224 211 212
78 58 109 92 87 120 110 70 118 172 112 94 283 96 95 73 64 26 18 18 10 355 334 291 265 263 268 261 247 246 249 249 249 249 249 249 248 246 247 250 254 255 256 258 259 238 222 206 206
66 358 181 167 135 118 95 59 124 87 90 88 182 155 126 186 156 14 22 17 14 6 359 339 296 281 273 268 268 256 256 253 251 250 256 252 250 250 250 252 253 256 254 257 253 238 223 211 208
89 44 86 126 118 138 99 54 43 75 210 84 149 258 161 166 199 45 14 8 358 352 351 358 2 350 319 285 270 261 257 250 261 268 267 262 257 254 256 255 258 258 256 254 246 231 229 212 212
78 80 115 72 156 115 113 151 178 256 27 344 263 327 58 188 199 242 7 1 357 357 356 354 355 356 3 1 336 305 282 265 248 238 256 266 265 261 261 262 260 252 250 251 249 237 222 217 214
70 113 133 157 167 139 148 199 173 275 265 233 221 255 217 192 196 171 355 348 348 354 3 8 5 1 356 350 344 339 332 314 284 260 252 257 257 258 258 258 261 256 247 243 247 247 235 227 214
29 119 121 96 102 133 150 233 225 249 225 229 220 243 219 179 179 175 139 346 356 12 18 14 9 1 355 347 341 335 326 318 315 308 298 284 276 271 261 255 256 253 248 248 245 246 241 235 235
30 64 129 135 123 132 152 210 228 259 260 283 275 208 187 176 184 187 170 353 8 20 17 15 10 8 2 357 355 347 342 334 321 310 300 296 295 297 282 263 254 242 239 241 250 247 240 241 239
104 75 70 120 77 45 264 279 257 260 331 334 312 214 189 183 182 176 169 81 32 9 8 9 12 9 10 16 11 9 5 2 356 350 340 323 303 292 292 296 270 256 244 243 254 251 244 246 243
83 110 86 106 119 197 252 277 321 317 343 299 292 188 184 183 176 189 188 177 39 1 0 5 5 2 7 7 9 8 7 6 3 359 353 346 339 326 310 297 291 288 273 268 253 243 242 248 239
90 104 112 84 28 41 335 328 316 26 344 352 82 162 168 167 166 173 148 136 240 333 355 358 353 354 354 352 354 357 358 358 357 353 350 347 341 337 332 325 312 296 288 280 276 266 241 231 225
116 125 152 49 349 81 315 151 81 13 13 32 72 97 122 138 142 142 165 177 184 354 356 351 352 351 348 346 345 347 350 349 348 347 344 340 334 331 329 326 323 314 295 274 273 219 217 223 252
100 159 301 79 2 23 318 87 100 7 356 356 22 104 119 124 136 143 169 170 115 358 350 354 354 351 349 350 350 348 348 348 345 343 343 338 330 323 320 319 316 308 300 261 251 248 264 276 271
41 40 349 343 49 335 11 328 44 356 356 348 301 135 136 125 108 101 103 89 50 17 7 360 356 355 356 356 356 354 351 349 347 344 341 339 334 327 319 312 308 304 292 275 247 256 263 269 264
352 339 311 309 9 344 323 315 346 2 9 24 79 123 114 99 89 94 94 71 37 17 11 9 8 5 3 359 360 359 358 357 354 350 346 342 337 332 323 315 306 298 292 282 266 253 254 260 261
343 309 302 323 39 330 312 327 27 9 32 57 89 104 105 106 109 102 88 64 47 45 33 21 14 11 -0 358 358 359 358 355 351 351 350 346 341 335 330 323 308 300 287 280 271 263 253 253 245
265 296 341 306 351 327 335 335 58 36 44 66 108 119 122 121 117 93 64 34 14 16 23 19 12 6 359 354 352 352 347 346 346 344 340 338 336 333 331 325 322 306 295 282 273 261 258 259 252
82 356 336 303 319 316 314 161 152 74 77 84 93 114 124 129 119 89 35 34 22 357 336 331 333 339 336 337 337 335 334 334 336 335 334 334 334 328 323 320 318 316 302 288 279 269 259 253 259
310 37 314 302 313 313 336 306 135 121 129 100 126 141 141 134 124 77 29 17 12 346 336 340 325 322 324 321 323 327 328 328 329 327 326 325 325 324 320 313 308 307 308 297 278 270 258 249 248
1 335 302 300 285 303 144 268 117 202 190 187 178 172 170 161 137 56 52 39 9 313 314 321 319 316 314 319 322 324 323 322 321 320 318 318 318 318 315 310 304 301 299 300 292 271 261 247 245
325 234 168 161 298 256 47 344 222 152 103 184 192 194 188 183 169 77 49 357 319 311 318 317 312 313 314 316 317 317 316 315 315 314 313 312 311 311 308 305 302 297 294 293 294 285 261 252 244
320 281 326 276 274 319 125 286 307 95 288 277 216 198 191 183 189 339 332 326 327 326 327 324 319 316 314 315 314 313 311 311 310 309 308 308 308 305 302 299 296 294 291 288 287 289 284 257 249
9 344 45 302 296 307 118 232 156 32 346 327 196 183 175 182 293 322 329 329 333 328 323 318 316 316 315 314 312 312 311 309 308 307 305 304 302 300 298 294 291 288 288 286 286 282 281 278 256
40 21 2 286 8 263 258 240 167 148 139 146 163 182 207 181 330 334 325 323 323 320 321 321 320 318 318 316 314 312 312 309 307 305 303 302 300 299 296 292 289 286 283 282 282 281 277 278 272
12 123 255 206 308 299 225 282 272 177 205 202 203 216 219 308 330 325 324 320 323 324 324 323 322 321 319 318 315 313 312 309 307 305 304 302 300 299 297 295 290 285 281 280 280 278 274 270 275
169 179 135 297 256 279 305 279 98 275 293 241 213 207 266 320 323 321 319 320 324 325 324 323 323 321 319 318 318 315 313 311 309 306 305 303 301 301 298 296 294 289 283 278 278 276 274 271 265
298 258 252 290 237 246 292 281 110 121 102 139 192 228 295 326 322 321 321 323 325 326 327 326 325 321 321 320 319 317 314 313 310 308 306 305 302 299 297 295 293 290 284 279 277 275 272 269 265
Wind_Speed_850mb
15 17 13 4 5 5 7 6 2 6 6 9 9 6 10 13 10 7 9 9 14 12 12 7 9 9 8 7 9 10 11 13 13 13 12 13 12 10 8 5 4 3 2 9 11 8 10 13 15
17 13 6 2 3 6 8 6 8 6 6 6 5 5 5 7 8 5 6 14 6 8 11 11 12 12 11 10 10 12 11 13 16 15 16 16 15 14 12 10 8 7 5 6 9 14 9 12 14
14 7 2 2 3 2 8 9 11 10 3 1 1 6 3 4 6 5 18 18 12 11 8 7 16 16 16 14 12 12 13 14 16 17 18 17 18 18 16 14 13 11 8 9 12 14 16 15 17
6 5 6 3 12 9 10 11 6 9 6 4 4 5 6 3 3 7 15 15 14 14 12 14 17 17 18 19 17 16 15 16 17 18 19 20 21 20 18 18 16 14 14 13 15 20 20 17 16
6 3 4 7 8 8 7 6 3 4 4 2 3 2 5 4 5 9 13 17 17 16 13 12 18 20 20 21 23 22 21 20 20 20 22 24 25 25 24 21 19 18 18 18 17 20 20 20 20
3 1 5 8 8 7 5 6 2 2 3 4 1 3 5 8 3 3 11 17 21 20 17 15 14 19 25 26 27 25 23 23 22 23 26 27 29 30 27 25 24 22 21 21 16 18 20 22 23
5 2 5 8 12 8 5 3 1 1 1 3 3 4 3 9 6 1 9 16 21 23 19 16 16 15 14 18 24 28 30 28 28 29 28 30 31 32 31 29 28 27 25 23 19 20 22 22 25
7 5 9 4 10 7 5 4 3 4 1 1 1 2 4 10 10 1 8 16 19 19 17 15 16 18 18 16 12 16 26 29 28 34 46 40 34 34 34 32 31 30 27 26 25 26 28 29 29
8 4 8 10 11 10 5 6 2 3 5 4 5 3 6 14 13 3 6 12 16 15 15 18 18 19 18 17 16 15 14 14 20 26 35 37 38 36 34 35 34 33 30 29 30 30 35 38 31
7 3 6 5 6 8 6 3 1 6 9 11 10 10 9 18 15 7 2 5 9 11 14 16 18 22 22 21 20 19 18 17 17 17 21 26 32 34 34 36 42 37 31 32 32 33 38 42 47
8 7 11 7 4 3 3 3 4 7 9 5 6 10 17 19 14 8 2 3 6 10 11 15 18 20 19 21 22 21 20 19 18 18 20 21 22 22 27 31 31 39 35 32 34 39 44 46 42
10 10 6 8 3 1 2 5 6 8 8 8 11 8 17 17 12 8 5 2 5 10 15 17 18 18 18 19 19 21 20 20 19 21 21 19 19 19 20 19 25 35 37 35 34 43 47 46 51
16 9 8 7 4 3 5 7 8 9 18 9 7 12 15 16 14 13 8 2 4 7 10 16 22 23 22 21 20 20 22 24 25 24 24 24 24 22 20 20 22 22 32 37 43 47 49 59 57
9 13 10 5 4 4 8 5 7 11 22 7 3 9 8 12 14 13 9 4 2 6 12 18 20 23 24 24 23 22 22 24 26 27 27 28 28 28 26 24 23 21 22 25 23 32 47 53 51
8 7 8 10 11 2 6 6 11 21 20 8 5 6 8 11 13 12 12 8 2 6 12 16 22 25 25 26 26 25 24 25 26 26 27 28 30 31 30 28 25 22 19 14 17 34 31 18 21
3 2 2 7 14 3 11 6 9 25 26 14 5 7 12 16 16 13 11 7 1 5 11 19 23 25 26 26 26 26 26 27 28 30 30 30 30 32 33 32 28 24 20 19 23 34 46 35 28
9 2 7 3 10 10 10 8 9 29 22 13 4 7 15 18 16 14 11 7 6 12 16 19 23 25 25 25 25 26 27 27 29 31 33 35 33 31 31 33 33 30 26 23 32 39 45 40 32
6 5 6 10 12 14 16 7 21 25 19 13 8 13 16 16 17 14 12 9 13 17 21 24 26 27 29 26 24 24 27 29 30 32 33 34 36 36 34 33 33 34 32 30 28 30 34 38 36
5 6 10 10 6 21 6 13 11 18 20 16 17 18 18 18 14 12 9 9 11 16 21 28 30 36 38 40 40 39 39 37 35 34 34 35 36 37 37 35 34 32 34 35 32 33 38 40 46
4 7 8 10 5 17 9 16 6 18 18 17 16 18 18 16 12 10 10 13 18 20 23 27 33 37 39 42 44 44 45 42 39 41 40 39 38 37 38 38 38 35 33 35 37 33 38 38 43
1 9 15 13 22 4 22 8 4 10 14 16 17 18 16 13 10 7 9 16 18 20 26 32 29 27 34 42 53 54 52 51 51 52 49 47 45 43 41 38 38 39 34 35 35 37 30 40 38
1 5 11 18 11 6 8 6 5 5 6 9 11 13 14 12 11 8 10 11 13 21 22 21 31 41 41 40 40 46 52 58 59 62 61 56 52 51 46 42 39 38 39 35 37 35 36 33 44
5 12 8 4 4 8 2 7 9 6 5 9 12 12 11 9 7 6 9 10 11 21 34 33 36 40 45 48 52 55 59 63 67 67 67 66 63 60 53 46 42 40 39 39 37 40 38 37 38
12 4 3 2 2 5 5 9 5 4 2 5 16 16 12 8 2 5 6 10 26 40 36 35 37 40 49 56 59 61 64 66 70 72 73 70 66 62 55 50 45 42 39 40 39 36 44 43 42
9 9 4 2 3 5 5 10 11 3 3 11 15 20 13 7 2 6 16 33 27 28 33 40 48 51 57 64 65 65 66 68 66 67 66 68 66 60 56 53 49 45 43 41 42 42 39 46 51
9 9 2 9 8 17 4 11 3 3 4 4 13 17 11 5 3 13 21 21 23 32 42 52 57 60 60 63 66 65 64 61 61 60 62 62 60 57 56 55 53 50 47 45 42 44 42 41 50
4 2 6 7 2 5 6 7 8 5 5 7 13 13 7 3 6 12 18 24 32 40 46 52 58 61 60 62 63 63 58 58 58 57 57 57 55 52 54 54 55 52 50 47 44 44 46 41 41
3 8 4 2 10 13 10 14 10 9 6 12 16 14 7 6 9 14 21 32 39 46 53 56 57 58 61 59 58 60 60 56 55 54 54 54 56 55 53 52 50 50 48 46 44 46 46 46 41
3 4 2 5 5 8 12 8 7 3 6 11 14 9 4 10 13 18 28 36 44 49 52 53 55 58 58 57 60 59 57 55 53 52 50 50 53 54 54 53 51 47 45 42 43 45 46 48 44
3 3 4 6 5 8 7 18 7 7 6 4 8 7 7 13 16 22 30 37 43 50 52 54 56 56 57 59 59 58 55 53 50 50 50 49 50 50 52 52 53 50 45 43 44 43 48 49 51
Wind_Direction_850mb
122 127 126 79 200 89 93 102 205 147 127 61 56 16 43 34 2 16 333 328 341 328 315 307 295 279 280 268 252 256 253 241 238 237 227 222 227 232 242 262 291 316 240 204 199 226 205 203 220
132 134 102 160 236 187 135 154 152 64 70 87 52 357 32 63 32 30 31 316 325 315 308 288 273 290 273 268 260 265 263 243 237 234 230 233 237 240 243 249 264 278 279 235 207 199 219 204 195
135 134 243 99 132 126 112 134 93 66 110 267 104 53 47 64 36 28 352 344 332 331 306 277 271 270 264 255 267 266 260 249 242 244 241 238 242 242 240 243 249 253 257 250 225 214 204 222 214
97 42 57 330 94 75 89 128 149 165 117 174 163 147 101 129 100 29 16 15 352 328 314 262 248 260 273 261 250 254 252 249 250 249 248 243 241 242 249 252 253 254 257 262 242 231 224 211 212
78 58 109 92 87 120 110 70 118 172 112 94 283 96 95 73 64 26 18 18 10 355 334 291 265 263 268 261 247 246 249 249 249 249 249 249 248 246 247 250 254 255 256 258 259 238 222 206 206
66 358 181 167 135 118 95 59 124 87 90 88 182 155 126 186 156 14 22 17 14 6 359 339 296 281 273 268 268 256 256 253 251 250 256 252 250 250 250 252 253 256 254 257 253 238 223 211 208
89 44 86 126 118 138 99 54 43 75 210 84 149 258 161 166 199 45 14 8 358 352 351 358 2 350 319 285 270 261 257 250 261 268 267 262 257 254 256 255 258 258 256 254 246 231 229 212 212
78 80 115 72 156 115 113 151 178 256 27 344 263 327 58 188 199 242 7 1 357 357 356 354 355 356 3 1 336 305 282 265 248 238 256 266 265 261 261 262 260 252 250 251 249 237 222 217 214
70 113 133 157 167 139 148 199 173 275 265 233 221 255 217 192 196 171 355 348 348 354 3 8 5 1 356 350 344 339 332 314 284 260 252 257 257 258 258 258 261 256 247 243 247 247 235 227 214
29 119 121 96 102 133 150 233 225 249 225 229 220 243 219 179 179 175 139 346 356 12 18 14 9 1 355 347 341 335 326 318 315 308 298 284 276 271 261 255 256 253 248 248 245 246 241 235 235
30 64 129 135 123 132 152 210 228 259 260 283 275 208 187 176 184 187 170 353 8 20 17 15 10 8 2 357 355 347 342 334 321 310 300 296 295 297 282 263 254 242 239 241 250 247 240 241 239
104 75 70 120 77 45 264 279 257 260 331 334 312 214 189 183 182 176 169 81 32 9 8 9 12 9 10 16 11 9 5 2 356 350 340 323 303 292 292 296 270 256 244 243 254 251 244 246 243
83 110 86 106 119 197 252 277 321 317 343 299 292 188 184 183 176 189 188 177 39 1 0 5 5 2 7 7 9 8 7 6 3 359 353 346 339 326 310 297 291 288 273 268 253 243 242 248 239
90 104 112 84 28 41 335 328 316 26 344 352 82 162 168 167 166 173 148 136 240 333 355 358 353 354 354 352 354 357 358 358 357 353 350 347 341 337 332 325 312 296 288 280 276 266 241 231 225
116 125 152 49 349 81 315 151 81 13 13 32 72 97 122 138 142 142 165 177 184 354 356 351 352 351 348 346 345 347 350 349 348 347 344 340 334 331 329 326 323 314 295 274 273 219 217 223 252
100 159 301 79 2 23 318 87 100 7 356 356 22 104 119 124 136 143 169 170 115 358 350 354 354 351 349 350 350 348 348 348 345 343 343 338 330 323 320 319 316 308 300 261 251 248 264 276 271
41 40 349 343 49 335 11 328 44 356 356 348 301 135 136 125 108 101 103 89 50 17 7 360 356 355 356 356 356 354 351 349 347 344 341 339 334 327 319 312 308 304 292 275 247 256 263 269 264
352 339 311 309 9 344 323 315 346 2 9 24 79 123 114 99 89 94 94 71 37 17 11 9 8 5 3 359 360 359 358 357 354 350 346 342 337 332 323 315 306 298 292 282 266 253 254 260 261
343 309 302 323 39 330 312 327 27 9 32 57 89 104 105 106 109 102 88 64 47 45 33 21 14 11 -0 358 358 359 358 355 351 351 350 346 341 335 330 323 308 300 287 280 271 263 253 253 245
265 296 341 306 351 327 335 335 58 36 44 66 108 119 122 121 117 93 64 34 14 16 23 19 12 6 359 354 352 352 347 346 346 344 340 338 336 333 331 325 322 306 295 282 273 261 258 259 252
82 356 336 303 319 316 314 161 152 74 77 84 93 114 124 129 119 89 35 34 22 357 336 331 333 339 336 337 337 335 334 334 336 335 334 334 334 328 323 320 318 316 302 288 279 269 259 253 259
310 37 314 302 313 313 336 306 135 121 129 100 126 141 141 134 124 77 29 17 12 346 336 340 325 322 324 321 323 327 328 328 329 327 326 325 325 324 320 313 308 307 308 297 278 270 258 249 248
1 335 302 300 285 303 144 268 117 202 190 187 178 172 170 161 137 56 52 39 9 313 314 321 319 316 314 319 322 324 323 322 321 320 318 318 318 318 315 310 304 301 299 300 292 271 261 247 245
325 234 168 161 298 256 47 344 222 152 103 184 192 194 188 183 169 77 49 357 319 311 318 317 312 313 314 316 317 317 316 315 315 314 313 312 311 311 308 305 302 297 294 293 294 285 261 252 244
320 281 326 276 274 319 125 286 307 95 288 277 216 198 191 183 189 339 332 326 327 326 327 324 319 316 314 315 314 313 311 311 310 309 308 308 308 305 302 299 296 294 291 288 287 289 284 257 249
9 344 45 302 296 307 118 232 156 32 346 327 196 183 175 182 293 322 329 329 333 328 323 318 316 316 315 314 312 312 311 309 308 307 305 304 302 300 298 294 291 288 288 286 286 282 281 278 256
40 21 2 286 8 263 258 240 167 148 139 146 163 182 207 181 330 334 325 323 323 320 321 321 320 318 318 316 314 312 312 309 307 305 303 302 300 299 296 292 289 286 283 282 282 281 277 278 272
12 123 255 206 308 299 225 282 272 177 205 202 203 216 219 308 330 325 324 320 323 324 324 323 322 321 319 318 315 313 312 309 307 305 304 302 300 299 297 295 290 285 281 280 280 278 274 270 275
169 179 135 297 256 279 305 279 98 275 293 241 213 207 266 320 323 321 319 320 324 325 324 323 323 321 319 318 318 315 313 311 309 306 305 303 301 301 298 296 294 289 283 278 278 276 274 271 265
298 258 252 290 237 246 292 281 110 121 102 139 192 228 295 326 322 321 321 323 325 326 327 326 325 321 321 320 319 317 314 313 310 308 306 305 302 299 297 295 293 290 284 279 277 275 272 269 265